Location: Marcé
(47.5801°N, 0.3280°W)
Time: 15:57:17
(UTC+01:00)

SR - Pass Details

Date: 05 December 2021
Orbit: 582 x 872 km, 66.7° (Epoch: 22 January)

Event Time Altitude Azimuth Distance (km) Brightness Sun altitude
Rises 06:41:16 0° 333° (NNW) 2,815 - -18.1°
Exits shadow 06:43:43 - 351° (N) 2,097 ? -17.7°
Reaches altitude 10° 06:44:31 10° 0° (N) 1,919 ? -17.5°
Maximum altitude 06:46:46 14° 32° (NNE) 1,690 ? -17.2°
Drops below altitude 10° 06:49:03 10° 64° (ENE) 1,950 ? -16.8°
Sets 06:52:24 0° 90° (E) 2,894 ? -16.3°
